Guymon, OK

12:06 AM CST on February 25, 2018 (GMT -0600)
Guymon Municipal

Weather History for KGUY - October, 2012

Change the Weather History Date:

Saturday, October 27, 2012

  Actual Average Record
Temperature  
Mean Temperature 41 °F 53 °F  
Max Temperature 58 °F 68 °F 84 °F (2016)
Min Temperature 23 °F 39 °F 23 °F (2012)
Degree Days  
Heating Degree Days 24 12  
Month to date heating degree days 244 215  
Since 1 July heating degree days 266 258  
Cooling Degree Days 0 0  
Month to date cooling degree days 12 25  
Year to date cooling degree days 1917 1479  
Moisture  
Dew Point 21 °F    
Average Humidity 56    
Maximum Humidity 88    
Minimum Humidity 23    
Precipitation  
Precipitation 0.00 in 0.03 in 0.42 in (2002)
Month to date precipitation 0.21 1.47  
Year to date precipitation 10.79 18.03  
Snow  
Snow 0.00 in - - ()
Month to date snowfall 0.0  
Since 1 July snowfall 0.0  
Since 1 September snowfall 0.0  
Snow Depth 0.00 in    
Sea Level Pressure  
Sea Level Pressure 30.23 in    
Wind  
Wind Speed 8 mph (South)    
Max Wind Speed 22 mph    
Max Gust Speed 29 mph    
Visibility 10 miles    
Events      
T = Trace of Precipitation, MM = Missing Value Source: NWS Daily Summary

Daily Weather History Graph

Daily Weather History Graph

Search for Another Location

Airport or City:

Trip Planner

Search our weather history database for the weather conditions in past years. The results will help you decide how hot, cold, wet, or windy it might be!

Date:

Astronomy

Oct. 27, 2012 Rise Set
Actual Time 8:05 AM CDT 6:53 PM CDT
Civil Twilight 7:38 AM CDT 7:20 PM CDT
Nautical Twilight 7:08 AM CDT 7:50 PM CDT
Astronomical Twilight 6:38 AM CDT 8:20 PM CDT
Moon 5:39 PM CDT (10/27) 6:04 AM CDT (10/27)
Length of Visible Light 11h 41m
Length of Day
10h 48m
Waxing Gibbous, 96% of the Moon is Illuminated
Oct 27
Waxing Gibbous
Oct 29
Full
Nov 6
Last Quarter
Nov 13
New
Nov 20
First Quarter

Hourly Weather History & Observations

Time (CDT) Temp. Windchill Dew Point Humidity Pressure Visibility Wind Dir Wind Speed Gust Speed Precip Events Conditions
12:53 AM 30.9 °F - 24.1 °F 76% 30.38 in 10.0 mi Calm Calm - N/A   Clear
1:53 AM 28.9 °F - 23.0 °F 78% 30.36 in 10.0 mi Calm Calm - N/A   Clear
2:53 AM 25.0 °F 20.7 °F 21.0 °F 85% 30.35 in 10.0 mi South 3.5 mph - N/A   Clear
3:53 AM 24.1 °F 17.0 °F 19.9 °F 84% 30.33 in 10.0 mi SW 5.8 mph - N/A   Clear
4:53 AM 23.0 °F 17.0 °F 18.0 °F 81% 30.31 in 10.0 mi SSW 4.6 mph - N/A   Clear
5:53 AM 25.0 °F 17.1 °F 19.9 °F 81% 30.32 in 10.0 mi SSW 6.9 mph - N/A   Clear
6:53 AM 24.1 °F 19.7 °F 18.0 °F 77% 30.34 in 10.0 mi South 3.5 mph - N/A   Clear
7:53 AM 23.0 °F 17.0 °F 18.0 °F 81% 30.32 in 10.0 mi South 4.6 mph - N/A   Clear
8:53 AM 27.0 °F 21.6 °F 19.9 °F 75% 30.34 in 10.0 mi South 4.6 mph - N/A   Clear
9:53 AM 33.1 °F 23.4 °F 21.9 °F 64% 30.31 in 10.0 mi South 13.8 mph - N/A   Clear
10:53 AM 41.0 °F 31.9 °F 23.0 °F 49% 30.25 in 10.0 mi South 19.6 mph 25.3 mph N/A   Clear
11:53 AM 45.0 °F 37.4 °F 23.0 °F 42% 30.22 in 10.0 mi South 18.4 mph 27.6 mph N/A   Clear
12:53 PM 48.9 °F - 23.0 °F 36% 30.18 in 10.0 mi South 17.3 mph 25.3 mph N/A   Clear
1:53 PM 51.1 °F - 21.0 °F 31% 30.15 in 10.0 mi SSW 17.3 mph 24.2 mph N/A   Clear
2:53 PM 53.1 °F - 19.9 °F 27% 30.12 in 10.0 mi SSW 10.4 mph - N/A   Clear
3:53 PM 57.0 °F - 21.0 °F 25% 30.09 in 10.0 mi South 10.4 mph 17.3 mph N/A   Clear
4:53 PM 57.0 °F - 19.9 °F 24% 30.09 in 10.0 mi South 6.9 mph - N/A   Clear
5:53 PM 55.9 °F - 19.9 °F 25% 30.09 in 10.0 mi SSE 8.1 mph - N/A   Clear
6:53 PM 51.1 °F - 21.9 °F 32% 30.11 in 10.0 mi SSE 5.8 mph - N/A   Clear
7:53 PM 46.0 °F 43.1 °F 21.0 °F 37% 30.16 in 10.0 mi SE 5.8 mph - N/A   Clear
8:53 PM 43.0 °F 41.3 °F 21.0 °F 42% 30.17 in 10.0 mi SE 3.5 mph - N/A   Clear
9:53 PM 39.9 °F 35.8 °F 21.9 °F 49% 30.19 in 10.0 mi South 5.8 mph - N/A   Clear
11:53 PM 35.1 °F 30.1 °F 23.0 °F 61% 30.20 in 10.0 mi SSW 5.8 mph - N/A   Clear